Flag for Gambia Weather past 2 weeks in Banjul, Gambia

Now
77 °F

Clear.


Feels Like: 78 °F
Forecast: 71 / 94 °F
Wind: 12 mph from East

Location: Banjul / Yundum

Current Time: Feb 27, 2015 at 7:04:06 AM

Latest Report: Feb 27, 2015 at 6:00 AM


Visibility: 5 mi

Pressure: 29.80 "Hg

Humidity: 28%

Dew point: 41 °F

Location of BanjulLocation

Historic Weather in Banjul — Graph

°F

Banjul temperature yesterday

Maximum temperature yesterday: 99 °F (at 3:00 PM)
Minimum temperature yesterday: 63 °F (at 4:00 AM)
Average temperature yesterday: 79 °F

Past Weeks' High & Low Weather Summary

 TemperatureHumidityPressure
High99 °F (Feb 16, 5:00 PM)100% (Feb 12, 7:00 AM)29.98 "Hg (Feb 12, 7:00 AM)
Low63 °F (Feb 12, 6:00 AM)8% (Feb 26, 2:00 PM)29.71 "Hg (Feb 26, 5:00 PM)
Average77 °F43%29.88 "Hg
* Reported Feb 12 6:00 AM — Feb 27 6:00 AM, Banjul, Weather by CustomWeather, © 2015

Note: Actual official high and low records may vary slightly from our data, if they occured in-between our weather recording intervals... More about our weather records

Advertising

Banjul weather history for previous 24 hours

 ConditionsComfort  
Time TempWeatherWind HumidityBarometerVisibility
6:00 AM
Fri, Feb 27
77 °FClear.12 mph28%29.80 "Hg5 mi
5:00 AM77 °FClear.12 mphN/AN/A5 mi
4:00 AM79 °FClear.12 mph30%29.77 "Hg5 mi
3:00 AM77 °FClear.12 mph30%29.83 "Hg5 mi
2:00 AM75 °FClear.7 mph34%29.83 "Hg5 mi
1:00 AM75 °FClear.6 mph36%29.80 "Hg5 mi
12:00 AM75 °FClear.6 mph41%29.80 "Hg5 mi
11:00 PM
Thu, Feb 26
77 °FClear.8 mph42%29.77 "Hg5 mi
10:00 PM81 °FClear.6 mph26%29.77 "Hg5 mi
9:00 PM79 °FClear.No wind30%29.74 "Hg4 mi
8:00 PM84 °FClear.No wind25%29.74 "Hg4 mi
7:00 PM91 °FSunny.7 mph23%29.71 "Hg4 mi
6:00 PM97 °FSunny.13 mph13%29.71 "Hg4 mi
5:00 PM99 °FSunny.14 mph8%29.71 "Hg6 mi
4:00 PM99 °FSunny.18 mph9%29.74 "Hg10 mi
3:00 PM99 °FSunny.22 mph8%29.74 "Hg6 mi
2:00 PM95 °FSunny.18 mph8%29.74 "Hg6 mi
1:00 PM93 °FSunny.20 mphN/AN/A10 mi
12:00 PM91 °FSunny.20 mphN/AN/A10 mi
11:00 AM86 °FSunny.20 mphN/AN/A10 mi
10:00 AM79 °FSunny.17 mph21%29.83 "Hg10 mi
9:00 AM72 °FSunny.9 mph36%29.83 "Hg10 mi
8:00 AM64 °FMild.8 mph64%29.83 "HgN/A
7:00 AM64 °FClear.12 mph64%29.83 "Hg10 mi
Weather by CustomWeather, © 2015

See weather overviewHow to use our weather pages